Zurück zum Katalog

STARLINK-5480

AktivKommunikationVLEO
NORAD 55664·PAYLOAD·🇺🇸 United States

Gestartet Feb 17, 2023 von Vandenberg Space Force Base

Loading…

Nächste Überflüge (nächste 24 Stunden)

TLE

AktuellSource: CelesTrak SupGP

Epoche: Sep 14, 2026, 22:29 UTC

1 55664C 23021AN  26257.93729167 -.00001634  00000+0 -13697-3 0  2571
2 55664  70.0020  47.3793 0003054 277.3207 307.5130 14.98316666    10

Verfolge STARLINK-5480 in Echtzeit mit AllMySat

Download on the App Store